CW9825 Weather Reports


time (UTC)temp
C
wind
direction
speed
KPH
gust
KPH
rain 1hr
cm
rain 24hr
cm
rain mn
cm
humidity
%
barometer
mb
20260903131059 21 84 6.4 14.5 0.00 0.00 0.00 78 1008.4
20260903130555 21 86 8.0 16.1 0.00 0.00 0.00 78 1008.6
20260903130056 21 78 8.0 16.1 0.00 0.00 0.00 78 1008.6
20260903125555 21 80 8.0 11.3 0.00 0.00 0.00 77 1008.6
20260903125055 21 67 3.2 11.3 0.00 0.00 0.00 77 1008.6
20260903124606 21 32 4.8 16.1 0.00 0.00 0.00 78 1008.6
20260903124053 21 92 6.4 17.7 0.00 0.00 0.00 78 1008.5
20260903123551 20 96 8.0 17.7 0.00 0.00 0.00 78 1008.4
20260903123050 20 165 9.7 16.1 0.00 0.00 0.00 79 1008.3
20260903122549 20 63 6.4 16.1 0.00 0.00 0.00 79 1008.4
20260903122048 20 116 6.4 14.5 0.00 0.00 0.00 79 1008.5
20260903121547 20 73 6.4 16.1 0.00 0.00 0.00 79 1008.3
20260903121046 20 26 6.4 16.1 0.00 0.00 0.00 79 1008.5
20260903120545 20 75 6.4 14.5 0.00 0.00 0.00 79 1008.5
20260903120055 20 86 8.0 14.5 0.00 0.00 0.00 78 1008.4
20260903115543 20 98 8.0 14.5 0.00 0.00 0.00 78 1008.4
20260903115043 20 95 6.4 12.9 0.00 0.00 0.00 78 1008.6
20260903114543 20 96 3.2 12.9 0.00 0.00 0.00 78 1008.6
20260903114042 20 92 6.4 12.9 0.00 0.00 0.00 78 1008.7
20260903113545 20 102 6.4 12.9 0.00 0.00 0.00 77 1008.7
20260903113047 20 98 6.4 14.5 0.00 0.00 0.00 77 1008.8
20260903112543 20 126 4.8 12.9 0.00 0.00 0.00 77 1008.8
20260903112041 20 92 4.8 12.9 0.00 0.00 0.00 77 1008.8
20260903111540 20 111 8.0 12.9 0.00 0.00 0.00 77 1008.9
20260903111039 20 56 4.8 11.3 0.00 0.00 0.00 77 1009.0
20260903110538 20 97 4.8 11.3 0.00 0.00 0.00 77 1009.2
20260903110038 20 98 4.8 11.3 0.00 0.00 0.00 77 1009.2
20260903105541 20 96 4.8 9.7 0.00 0.00 0.00 77 1009.2
20260903105039 20 94 3.2 8.0 0.00 0.00 0.00 77 1009.1
20260903104539 20 79 3.2 9.7 0.00 0.00 0.00 77 1009.1
20260903104037 20 50 3.2 9.7 0.00 0.00 0.00 77 1009.0
20260903103537 20 74 4.8 9.7 0.00 0.00 0.00 78 1009.1
20260903103036 20 78 3.2 9.7 0.00 0.00 0.00 78 1009.2
20260903102536 20 63 4.8 9.7 0.00 0.00 0.00 78 1009.2
20260903102035 20 51 4.8 9.7 0.00 0.00 0.00 78 1009.3
20260903101544 19 92 3.2 9.7 0.00 0.00 0.00 78 1009.4
20260903101035 19 79 1.6 6.4 0.00 0.00 0.00 78 1009.4
20260903100535 19 81 3.2 8.0 0.00 0.00 0.00 78 1009.3
20260903100036 19 71 3.2 8.0 0.00 0.00 0.00 78 1009.2
20260903095534 19 82 3.2 6.4 0.00 0.00 0.00 78 1009.3
20260903095033 19 68 3.2 8.0 0.00 0.00 0.00 78 1009.3
20260903094533 19 60 3.2 8.0 0.00 0.00 0.00 78 1009.4
20260903094034 19 66 3.2 6.4 0.00 0.00 0.00 78 1009.5
20260903093532 19 57 1.6 6.4 0.00 0.00 0.00 78 1009.6
20260903093040 19 56 1.6 6.4 0.00 0.00 0.00 78 1009.7
20260903092531 19 58 1.6 6.4 0.00 0.00 0.00 78 1009.7
20260903092031 19 59 3.2 8.0 0.00 0.00 0.00 78 1009.7
20260903091530 19 53 1.6 4.8 0.00 0.00 0.00 78 1009.7
20260903091036 19 51 0.0 4.8 0.00 0.00 0.00 79 1009.7
20260903090531 19 51 1.6 4.8 0.00 0.00 0.00 78 1009.7
20260903090033 18 42 0.0 6.4 0.00 0.00 0.00 79 1009.8
20260903085529 18 63 3.2 6.4 0.00 0.00 0.00 79 1009.7
20260903085029 18 76 3.2 6.4 0.00 0.00 0.00 79 1009.7
20260903084533 19 107 3.2 6.4 0.00 0.00 0.00 79 1009.7
20260903084028 19 65 3.2 6.4 0.00 0.00 0.00 79 1009.8
20260903083528 19 80 3.2 6.4 0.00 0.00 0.00 79 1010.0
20260903083028 19 80 3.2 6.4 0.00 0.00 0.00 79 1009.9
20260903082526 19 69 3.2 6.4 0.00 0.00 0.00 79 1010.0
20260903082026 19 64 3.2 8.0 0.00 0.00 0.00 79 1010.1
20260903081526 19 55 3.2 8.0 0.00 0.00 0.00 79 1010.0
20260903081024 19 71 3.2 9.7 0.00 0.00 0.00 79 1010.1
20260903080524 18 96 4.8 6.4 0.00 0.00 0.00 80 1010.2
20260903080037 19 71 1.6 4.8 0.00 0.00 0.00 79 1010.3
20260903075522 19 64 1.6 4.8 0.00 0.00 0.00 79 1010.4
20260903075022 19 63 1.6 4.8 0.00 0.00 0.00 79 1010.5
20260903074521 19 64 1.6 6.4 0.00 0.00 0.00 79 1010.5
20260903074021 19 63 1.6 9.7 0.00 0.00 0.00 79 1010.5
20260903073520 19 103 3.2 9.7 0.00 0.00 0.00 79 1010.5
20260903073024 19 63 3.2 6.4 0.00 0.00 0.00 79 1010.5
20260903072520 19 57 3.2 9.7 0.00 0.00 0.00 79 1010.4
20260903072021 19 95 3.2 6.4 0.00 0.00 0.00 79 1010.4
20260903071520 19 86 3.2 8.0 0.00 0.00 0.00 79 1010.3
20260903071023 19 72 3.2 8.0 0.00 0.00 0.00 79 1010.5
20260903070517 19 81 3.2 6.4 0.00 0.00 0.00 79 1010.5
20260903070019 19 63 1.6 6.4 0.00 0.00 0.00 79 1010.6
20260903065517 19 60 3.2 6.4 0.00 0.00 0.00 79 1010.7
20260903065017 19 96 3.2 8.0 0.00 0.00 0.00 79 1010.6
20260903064517 19 68 4.8 8.0 0.00 0.00 0.00 79 1010.7
20260903064016 19 92 3.2 6.4 0.00 0.00 0.00 79 1010.7
20260903063515 19 77 1.6 6.4 0.00 0.00 0.00 79 1010.9
20260903063015 19 81 3.2 6.4 0.00 0.00 0.00 79 1011.0
20260903062515 19 84 1.6 6.4 0.00 0.00 0.00 79 1011.1
20260903062015 19 86 1.6 6.4 0.00 0.00 0.00 79 1011.1
20260903061516 19 87 3.2 6.4 0.00 0.00 0.00 79 1011.1
20260903061116 19 87 3.2 6.4 0.00 0.00 0.00 79 1011.2
20260903060513 19 72 1.6 9.7 0.00 0.00 0.00 79 1011.1
20260903060012 19 77 1.6 9.7 0.00 0.00 0.00 78 1011.1
20260903055512 19 91 3.2 9.7 0.00 0.00 0.00 78 1011.0
20260903055010 20 58 3.2 8.0 0.00 0.00 0.00 78 1011.0
20260903054512 20 68 4.8 9.7 0.00 0.00 0.00 77 1011.0
20260903054009 20 83 3.2 9.7 0.00 0.00 0.00 77 1010.9
20260903053509 20 88 3.2 9.7 0.00 0.00 0.00 76 1010.9
20260903053007 20 81 4.8 9.7 0.00 0.00 0.00 76 1011.0
20260903052506 20 71 3.2 8.0 0.00 0.00 0.00 75 1011.1
20260903052007 20 78 4.8 8.0 0.00 0.00 0.00 74 1011.2
20260903051507 20 74 3.2 8.0 0.00 0.00 0.00 74 1011.3
20260903051004 20 52 3.2 6.4 0.00 0.00 0.00 74 1011.3
20260903050602 20 88 1.6 6.4 0.00 0.00 0.00 73 1011.2
20260903050005 20 71 3.2 6.4 0.00 0.00 0.00 72 1011.3
20260903045502 20 48 1.6 6.4 0.00 0.00 0.00 72 1011.4
20260903045002 20 42 1.6 6.4 0.00 0.00 0.00 71 1011.3
20260903044505 21 65 1.6 6.4 0.00 0.00 0.00 71 1011.4
20260903044001 21 32 1.6 6.4 0.00 0.00 0.00 70 1011.4
20260903043501 21 49 1.6 6.4 0.00 0.00 0.00 70 1011.5
20260903043001 21 59 1.6 6.4 0.00 0.00 0.00 69 1011.5
20260903042500 21 47 1.6 6.4 0.00 0.00 0.00 69 1011.5
20260903042002 21 44 1.6 6.4 0.00 0.00 0.00 68 1011.5
20260903041612 21 37 0.0 4.8 0.00 0.00 0.00 68 1011.4
20260903041100 21 38 0.0 6.4 0.00 0.00 0.00 67 1011.4
20260903040600 21 35 3.2 6.4 0.00 0.00 0.00 67 1011.5
20260903040120 22 47 1.6 8.0 0.00 0.00 0.00 66 1011.5
20260903035559 22 51 3.2 8.0 0.00 0.00 0.00 66 1011.5
20260903035059 22 10 1.6 4.8 0.00 0.00 0.00 66 1011.6
20260903034603 22 10 1.6 6.4 0.00 0.00 0.00 65 1011.7
20260903034102 22 43 1.6 6.4 0.00 0.00 0.00 65 1011.8
20260903033559 22 45 1.6 6.4 0.00 0.00 0.00 65 1011.8
20260903033059 22 96 3.2 8.0 0.00 0.00 0.00 63 1011.9
20260903032559 22 78 3.2 8.0 0.00 0.00 0.00 63 1011.8
20260903032058 22 103 3.2 9.7 0.00 0.00 0.00 62 1011.9
20260903031601 22 85 3.2 8.0 0.00 0.00 0.00 63 1011.8
20260903031101 22 99 3.2 8.0 0.00 0.00 0.00 62 1011.9
20260903030558 23 63 3.2 8.0 0.00 0.00 0.00 62 1011.9
20260903030100 23 56 3.2 8.0 0.00 0.00 0.00 62 1011.9
20260903025557 23 65 3.2 8.0 0.00 0.00 0.00 62 1011.9
20260903025057 23 42 3.2 6.4 0.00 0.00 0.00 62 1011.9
20260903024558 23 64 3.2 6.4 0.00 0.00 0.00 62 1011.8
20260903024057 23 96 3.2 6.4 0.00 0.00 0.00 62 1011.9
20260903023557 23 99 3.2 9.7 0.00 0.00 0.00 61 1011.9
20260903023101 23 58 3.2 9.7 0.00 0.00 0.00 61 1011.9
20260903022601 23 69 4.8 8.0 0.00 0.00 0.00 61 1011.8
20260903022057 23 67 3.2 9.7 0.00 0.00 0.00 61 1011.9
20260903021559 23 97 3.2 8.0 0.00 0.00 0.00 60 1011.9
20260903021057 24 72 3.2 8.0 0.00 0.00 0.00 60 1011.8
20260903020556 24 65 3.2 8.0 0.00 0.00 0.00 60 1011.7
20260903020056 24 101 3.2 8.0 0.00 0.00 0.00 59 1011.5
20260903015556 24 90 4.8 8.0 0.00 0.00 0.00 59 1011.5
20260903015056 25 82 4.8 8.0 0.00 0.00 0.00 58 1011.5
20260903014556 25 55 1.6 8.0 0.00 0.00 0.00 57 1011.6
20260903014056 25 67 3.2 6.4 0.00 0.00 0.00 57 1011.5
20260903013556 25 64 1.6 8.0 0.00 0.00 0.00 57 1011.5
20260903013056 25 80 1.6 8.0 0.00 0.00 0.00 56 1011.5
20260903012555 25 84 3.2 9.7 0.00 0.00 0.00 57 1011.5
20260903012057 25 86 4.8 9.7 0.00 0.00 0.00 57 1011.4
20260903011556 25 82 3.2 9.7 0.00 0.00 0.00 57 1011.3
20260903011058 25 92 3.2 9.7 0.00 0.00 0.00 56 1011.3
20260903010554 25 86 3.2 8.0 0.00 0.00 0.00 55 1011.3
20260903010054 26 55 4.8 8.0 0.00 0.00 0.00 55 1011.4
20260903005554 26 83 3.2 9.7 0.00 0.00 0.00 55 1011.3
20260903005057 26 65 3.2 9.7 0.00 0.00 0.00 55 1011.2
20260903004557 26 67 3.2 9.7 0.00 0.00 0.00 54 1011.2
20260903004054 26 99 3.2 6.4 0.00 0.00 0.00 54 1011.2
20260903003554 26 120 4.8 8.0 0.00 0.00 0.00 54 1011.2
20260903003053 26 87 3.2 11.3 0.00 0.00 0.00 53 1011.1
20260903002554 26 20 4.8 11.3 0.00 0.00 0.00 53 1011.1
20260903002054 26 64 3.2 12.9 0.00 0.00 0.00 53 1011.1
20260903001603 26 56 6.4 12.9 0.00 0.00 0.00 53 1011.1
20260903001053 26 105 6.4 12.9 0.00 0.00 0.00 53 1011.2
20260903000553 26 115 6.4 12.9 0.00 0.00 0.00 52 1011.1
20260903000052 27 64 4.8 12.9 0.00 0.00 0.00 52 1011.1
20260902235552 27 101 6.4 12.9 0.00 0.00 0.00 52 1011.1
20260902235051 27 95 8.0 11.3 0.00 0.00 0.00 51 1011.2
20260902234551 27 98 4.8 11.3 0.00 0.00 0.00 50 1011.2
20260902234053 27 100 6.4 14.5 0.00 0.00 0.00 50 1011.1
20260902233551 27 105 6.4 14.5 0.00 0.00 0.00 50 1011.2
20260902233051 27 94 4.8 14.5 0.00 0.00 0.00 50 1011.2
20260902232550 27 80 4.8 14.5 0.00 0.00 0.00 49 1011.2
20260902232050 27 105 4.8 12.9 0.00 0.00 0.00 48 1011.2
20260902231550 27 82 4.8 11.3 0.00 0.00 0.00 48 1011.2
20260902231051 27 71 1.6 9.7 0.00 0.00 0.00 48 1011.2
20260902230551 27 45 3.2 11.3 0.00 0.00 0.00 48 1011.1
20260902230051 27 100 6.4 11.3 0.00 0.00 0.00 48 1011.2
20260902225549 27 65 4.8 12.9 0.00 0.00 0.00 48 1011.2
20260902225049 27 73 3.2 11.3 0.00 0.00 0.00 48 1011.2
20260902224555 27 112 6.4 11.3 0.00 0.00 0.00 47 1011.1
20260902224049 27 60 6.4 11.3 0.00 0.00 0.00 47 1011.2
20260902223549 27 74 4.8 12.9 0.00 0.00 0.00 47 1011.1
20260902223050 27 93 3.2 9.7 0.00 0.00 0.00 46 1011.1
20260902222547 27 82 4.8 9.7 0.00 0.00 0.00 47 1011.1
20260902222048 27 90 6.4 11.3 0.00 0.00 0.00 47 1011.2
20260902221551 27 61 4.8 11.3 0.00 0.00 0.00 46 1011.3
20260902221045 27 65 4.8 12.9 0.00 0.00 0.00 47 1011.4
20260902220545 27 71 4.8 12.9 0.00 0.00 0.00 46 1011.4
20260902220053 27 92 6.4 12.9 0.00 0.00 0.00 47 1011.4
20260902215544 27 86 3.2 8.0 0.00 0.00 0.00 46 1011.4
20260902215144 27 44 3.2 11.3 0.00 0.00 0.00 45 1011.5
20260902214543 28 110 4.8 16.1 0.00 0.00 0.00 44 1011.5
20260902214043 28 15 6.4 16.1 0.00 0.00 0.00 45 1011.6
20260902213542 28 19 4.8 11.3 0.00 0.00 0.00 44 1011.7
20260902213047 28 86 4.8 12.9 0.00 0.00 0.00 44 1011.8
20260902212542 28 50 4.8 12.9 0.00 0.00 0.00 45 1011.8
20260902212042 28 9 3.2 8.0 0.00 0.00 0.00 44 1011.8
20260902211542 27 78 3.2 11.3 0.00 0.00 0.00 45 1011.8
20260902211040 28 44 4.8 17.7 0.00 0.00 0.00 44 1011.9
20260902210539 28 5 6.4 17.7 0.00 0.00 0.00 44 1011.9
20260902210039 28 35 3.2 9.7 0.00 0.00 0.00 46 1012.0
20260902205538 28 86 4.8 11.3 0.00 0.00 0.00 45 1012.1
20260902205038 28 55 6.4 11.3 0.00 0.00 0.00 45 1012.1
20260902204538 28 82 3.2 14.5 0.00 0.00 0.00 45 1012.1
20260902204038 28 84 6.4 14.5 0.00 0.00 0.00 44 1012.1
20260902203538 28 46 4.8 11.3 0.00 0.00 0.00 45 1012.0
20260902203037 28 141 1.6 8.0 0.00 0.00 0.00 45 1012.1
20260902202537 28 78 3.2 11.3 0.00 0.00 0.00 45 1012.1
20260902202039 28 70 4.8 11.3 0.00 0.00 0.00 45 1012.2
20260902201535 28 330 1.6 8.0 0.00 0.00 0.00 44 1012.3
20260902201036 28 69 3.2 12.9 0.00 0.00 0.00 45 1012.3
20260902200534 28 23 4.8 14.5 0.00 0.00 0.00 44 1012.3
20260902200033 28 53 6.4 14.5 0.00 0.00 0.00 45 1012.3
20260902195532 28 71 8.0 14.5 0.00 0.00 0.00 44 1012.3
20260902195030 28 30 1.6 12.9 0.00 0.00 0.00 44 1012.4
20260902194536 27 11 6.4 12.9 0.00 0.00 0.00 46 1012.5
20260902194029 27 28 3.2 9.7 0.00 0.00 0.00 46 1012.6
20260902193527 27 112 3.2 9.7 0.00 0.00 0.00 48 1012.7
20260902193028 27 51 3.2 11.3 0.00 0.00 0.00 48 1012.7
20260902192526 27 63 4.8 9.7 0.00 0.00 0.00 48 1012.7
20260902192026 27 69 1.6 9.7 0.00 0.00 0.00 47 1012.7
20260902191525 27 108 4.8 9.7 0.00 0.00 0.00 48 1012.8
20260902191028 27 5 1.6 6.4 0.00 0.00 0.00 46 1012.9
20260902190524 27 11 3.2 8.0 0.00 0.00 0.00 49 1012.9
20260902190033 27 65 3.2 12.9 0.00 0.00 0.00 48 1013.1
20260902185523 27 78 4.8 12.9 0.00 0.00 0.00 49 1013.2
20260902185024 27 355 4.8 9.7 0.00 0.00 0.00 51 1013.2
20260902184521 27 101 3.2 9.7 0.00 0.00 0.00 51 1013.1
20260902184020 27 61 3.2 14.5 0.00 0.00 0.00 51 1013.2
20260902183520 27 59 4.8 14.5 0.00 0.00 0.00 50 1013.2
20260902183019 27 331 6.4 11.3 0.00 0.00 0.00 51 1013.2
20260902182521 26 45 3.2 11.3 0.00 0.00 0.00 52 1013.3
20260902182017 26 51 4.8 12.9 0.00 0.00 0.00 52 1013.4
20260902181517 27 101 4.8 16.1 0.00 0.00 0.00 51 1013.4
20260902181016 26 92 8.0 16.1 0.00 0.00 0.00 52 1013.5
20260902180516 26 5 4.8 14.5 0.00 0.00 0.00 53 1013.5
20260902180022 26 340 3.2 14.5 0.00 0.00 0.00 52 1013.5
20260902175515 26 34 4.8 14.5 0.00 0.00 0.00 52 1013.5
20260902175014 26 59 4.8 9.7 0.00 0.00 0.00 51 1013.6
20260902174516 26 346 3.2 14.5 0.00 0.00 0.00 54 1013.5
20260902174012 26 86 6.4 14.5 0.00 0.00 0.00 53 1013.6
20260902173513 26 90 4.8 14.5 0.00 0.00 0.00 55 1013.6
20260902173012 26 92 4.8 14.5 0.00 0.00 0.00 54 1013.7
20260902172515 26 78 6.4 14.5 0.00 0.00 0.00 53 1013.7
20260902172010 26 42 8.0 14.5 0.00 0.00 0.00 54 1013.7
20260902171509 26 28 6.4 12.9 0.00 0.00 0.00 55 1013.7
20260902171008 26 96 4.8 17.7 0.00 0.00 0.00 55 1013.6
20260902170505 25 57 6.4 17.7 0.00 0.00 0.00 57 1013.6
20260902170005 25 61 4.8 11.3 0.00 0.00 0.00 60 1013.7
20260902165505 25 61 4.8 12.9 0.00 0.00 0.00 58 1013.7
20260902165005 25 53 4.8 12.9 0.00 0.00 0.00 57 1013.6
20260902164504 25 16 4.8 9.7 0.00 0.00 0.00 58 1013.7
20260902164004 25 38 6.4 12.9 0.00 0.00 0.00 58 1013.8
20260902163503 25 55 3.2 12.9 0.00 0.00 0.00 60 1013.8
20260902163002 25 61 4.8 9.7 0.00 0.00 0.00 59 1013.7
20260902162501 24 19 4.8 16.1 0.00 0.00 0.00 61 1013.7
20260902162001 24 14 4.8 16.1 0.00 0.00 0.00 60 1013.6
20260902161501 23 26 3.2 11.3 0.00 0.00 0.00 62 1013.7
20260902161001 23 69 4.8 12.9 0.00 0.00 0.00 61 1013.6
20260902160600 24 338 4.8 16.1 0.00 0.00 0.00 59 1013.6
20260902160059 25 33 4.8 16.1 0.00 0.00 0.00 61 1013.6
20260902155558 24 20 3.2 8.0 0.00 0.00 0.00 62 1013.5
20260902155056 23 74 1.6 9.7 0.00 0.00 0.00 63 1013.5
20260902154555 23 64 4.8 8.0 0.00 0.00 0.00 65 1013.6
20260902154054 23 45 1.6 8.0 0.00 0.00 0.00 64 1013.8
20260902153553 23 15 3.2 6.4 0.00 0.00 0.00 64 1013.7
20260902153053 23 61 1.6 6.4 0.00 0.00 0.00 66 1013.6
20260902152550 22 101 0.0 0.0 0.00 0.00 0.00 67 1013.7
20260902152051 22 99 0.0 0.0 0.00 0.00 0.00 68 1013.7
20260902151548 22 94 0.0 0.0 0.00 0.00 0.00 70 1013.8
20260902151046 22 94 0.0 0.0 0.00 0.00 0.00 69 1013.9
20260902150544 21 95 0.0 0.0 0.00 0.00 0.00 69 1014.0
20260902150044 21 95 0.0 0.0 0.00 0.00 0.00 70 1014.1
20260902145543 21 95 0.0 0.0 0.00 0.00 0.00 69 1014.1
20260902145043 21 95 0.0 0.0 0.00 0.00 0.00 71 1014.1
20260902144541 21 95 0.0 0.0 0.00 0.00 0.00 72 1014.1
20260902144040 21 95 0.0 0.0 0.00 0.00 0.00 72 1014.1
20260902143539 20 95 0.0 3.2 0.00 0.00 0.00 73 1014.1
20260902143038 20 95 0.0 4.8 0.00 0.00 0.00 73 1014.1
20260902142537 20 95 0.0 4.8 0.00 0.00 0.00 73 1014.1
20260902142036 20 105 1.6 4.8 0.00 0.00 0.00 73 1014.2
20260902141545 20 110 1.6 4.8 0.00 0.00 0.00 73 1014.2
20260902141035 20 104 0.0 4.8 0.00 0.00 0.00 74 1014.3
20260902140534 20 103 0.0 4.8 0.00 0.00 0.00 74 1014.3
20260902140034 19 104 0.0 4.8 0.00 0.00 0.00 74 1014.3
20260902135533 19 103 0.0 3.2 0.00 0.00 0.00 74 1014.4
20260902135032 19 103 1.6 4.8 0.00 0.00 0.00 74 1014.4
20260902134534 18 103 1.6 4.8 0.00 0.00 0.00 74 1014.5
20260902134031 18 105 0.0 4.8 0.00 0.00 0.00 74 1014.4
20260902133535 18 105 1.6 4.8 0.00 0.00 0.00 74 1014.3
20260902133032 18 81 1.6 6.4 0.00 0.00 0.00 74 1014.3
20260902132532 18 81 1.6 6.4 0.00 0.00 0.00 74 1014.3
20260902132029 18 55 1.6 6.4 0.00 0.00 0.00 74 1014.2
20260902131529 18 49 0.0 4.8 0.00 0.00 0.00 76 1014.2